FW9852 Weather Reports


time (UTC)temp
C
wind
direction
speed
KPH
gust
KPH
rain 1hr
cm
rain 24hr
cm
rain mn
cm
humidity
%
barometer
mb
20260505060104 10 275 6.4 14.5 0.00 0.00 0.00 85 1007.1
20260505054557 10 261 6.4 19.3 0.00 0.00 0.00 85 1007.1
20260505053058 10 285 6.4 19.3 0.00 0.00 0.00 85 1007.1
20260505051556 10 241 11.3 17.7 0.00 0.00 0.00 86 1006.8
20260505041554 10 256 9.7 16.1 0.00 0.00 0.00 88 1006.7
20260505040105 10 251 9.7 16.1 0.00 0.00 0.00 89 1006.6
20260505034554 10 273 6.4 16.1 0.00 0.00 0.00 90 1006.4
20260505033057 9 259 4.8 12.9 0.00 0.00 0.00 90 1006.6
20260505031601 9 258 8.0 16.1 0.00 0.00 0.00 90 1006.5
20260505030100 9 214 8.0 19.3 0.00 0.00 0.00 90 1006.6
20260505024555 9 265 6.4 14.5 0.00 0.00 0.00 89 1006.5
20260505023056 9 246 0.0 4.8 0.00 0.00 0.00 89 1006.6
20260505021557 9 254 3.2 9.7 0.00 0.00 0.00 89 1006.5
20260505020105 9 266 4.8 11.3 0.00 0.00 0.00 90 1006.6
20260505014608 9 271 4.8 16.1 0.00 0.00 0.00 90 1006.6
20260505013105 9 265 9.7 19.3 0.00 0.00 0.00 90 1006.6
20260505011608 9 269 9.7 16.1 0.00 0.00 0.00 89 1006.6
20260505010100 9 248 4.8 12.9 0.00 0.00 0.00 89 1006.6
20260505004601 9 269 4.8 12.9 0.00 0.00 0.00 89 1006.7
20260505003058 9 273 11.3 20.9 0.00 0.00 0.00 88 1006.7
20260505001601 9 244 4.8 12.9 0.00 0.00 0.00 88 1006.6
20260505000101 9 278 6.4 12.9 0.00 0.00 0.00 89 1006.5
20260504234558 8 257 3.2 9.7 0.00 0.00 0.00 88 1006.6
20260504233056 9 273 1.6 9.7 0.00 0.00 0.00 86 1006.6
20260504231558 10 280 4.8 12.9 0.00 0.00 0.00 85 1006.6
20260504230059 10 294 4.8 9.7 0.00 0.00 0.00 86 1006.6
20260504224558 10 293 4.8 12.9 0.00 0.00 0.00 84 1006.6
20260504223055 10 287 8.0 14.5 0.00 0.00 0.00 84 1006.6
20260504221556 10 282 4.8 17.7 0.00 0.00 0.00 84 1006.6
20260504220101 11 276 8.0 16.1 0.00 0.00 0.00 84 1006.6
20260504214604 11 290 9.7 16.1 0.00 0.00 0.00 83 1006.6
20260504213058 11 270 11.3 19.3 0.00 0.00 0.00 83 1006.4
20260504211556 11 213 11.3 19.3 0.00 0.00 0.00 82 1006.3
20260504210105 11 246 4.8 11.3 0.00 0.00 0.00 81 1006.2
20260504204611 11 259 8.0 14.5 0.00 0.00 0.00 81 1005.9
20260504203134 11 238 4.8 12.9 0.00 0.00 0.00 79 1006.0
20260504201559 11 257 3.2 12.9 0.00 0.00 0.00 79 1006.1
20260504200057 11 275 4.8 9.7 0.00 0.00 0.00 79 1005.9
20260504194555 11 273 3.2 12.9 0.00 0.00 0.00 78 1005.8
20260504193056 11 273 6.4 12.9 0.00 0.00 0.00 78 1005.8
20260504191558 11 281 8.0 14.5 0.00 0.00 0.00 78 1005.7
20260504190057 12 260 4.8 16.1 0.00 0.00 0.00 77 1005.7
20260504184559 12 237 6.4 16.1 0.00 0.00 0.00 76 1005.6
20260504183103 12 246 6.4 16.1 0.00 0.00 0.00 75 1005.6
20260504181556 12 302 6.4 16.1 0.00 0.00 0.00 75 1005.4
20260504180113 13 281 9.7 19.3 0.00 0.00 0.00 74 1005.2
20260504174559 13 265 11.3 20.9 0.00 0.00 0.00 73 1005.1
20260504173108 13 247 11.3 22.5 0.00 0.00 0.00 72 1005.1
20260504171604 14 267 14.5 25.7 0.00 0.00 0.00 70 1004.7
20260504160106 17 246 14.5 27.4 0.00 0.00 0.00 66 1003.8
20260504081558 16 269 11.3 19.3 0.00 0.00 0.00 70 1006.6